This is the latest recevied weather packets stored in our database for station/object NK7E-2. If no packets are shown the sender has not sent any weather packets the latest 10 day(s).
| Time | Temp. | Humidity | Pressure | Rain* | Wind** | Luminosity | Snow |
|---|---|---|---|---|---|---|---|
| 1777691116 | 23.33° C | 23% | 1019.4 hPa | 0 mm | - | - | - |
| 1777690516 | 23.33° C | 23% | 1019.4 hPa | 0 mm | - | - | - |
| 1777689916 | 23.89° C | 23% | 1019 hPa | 0 mm | - | - | - |
| 1777689316 | 23.89° C | 22% | 1019.1 hPa | 0 mm | - | - | - |
| 1777688716 | 23.89° C | 22% | 1019 hPa | 0 mm | - | - | - |
| 1777688116 | 24.44° C | 22% | 1018.2 hPa | 0 mm | - | - | - |
| 1777687516 | 24.44° C | 21% | 1018.3 hPa | 0 mm | - | - | - |
| 1777686916 | 25° C | 20% | 1018.4 hPa | 0 mm | - | - | - |
| 1777686316 | 25° C | 20% | 1018.3 hPa | 0 mm | - | - | - |
| 1777685716 | 25.56° C | 19% | 1017.9 hPa | 0 mm | - | - | - |
| 1777685116 | 26.11° C | 19% | 1017.8 hPa | 0 mm | - | - | - |
| 1777684516 | 26.11° C | 18% | 1017.9 hPa | 0 mm | - | - | - |
| 1777683916 | 26.67° C | 18% | 1018 hPa | 0 mm | - | - | - |
| 1777683316 | 26.67° C | 17% | 1018 hPa | 0 mm | - | - | - |
| 1777682716 | 26.67° C | 17% | 1017.8 hPa | 0 mm | - | - | - |
| 1777682116 | 27.22° C | 17% | 1017.8 hPa | 0 mm | - | - | - |
| 1777681516 | 27.22° C | 17% | 1017.8 hPa | 0 mm | - | - | - |
| 1777680916 | 27.22° C | 17% | 1018.1 hPa | 0 mm | - | - | - |
| 1777680316 | 27.22° C | 18% | 1018 hPa | 0 mm | - | - | - |
| 1777679716 | 26.67° C | 18% | 1017.7 hPa | 0 mm | - | - | - |
| 1777679118 | 26.67° C | 19% | 1017.5 hPa | 0 mm | - | - | - |
| 1777678517 | 26.67° C | 19% | 1017.8 hPa | 0 mm | - | - | - |
| 1777677917 | 26.67° C | 18% | 1017.8 hPa | 0 mm | - | - | - |
| 1777677317 | 27.22° C | 18% | 1017.9 hPa | 0 mm | - | - | - |
| 1777676718 | 27.22° C | 18% | 1018 hPa | 0 mm | - | - | - |
* Rain latest hour (hover to see other rain measurements)
** Current wind speed in m/s (hover to see current wind gust speed)